Home   Weather   Compton   Past weeks

Flag for USA Past Weather in Compton, California, USA — Yesterday and Last 2 Weeks

Now
51 °F

Mostly cloudy.


Feels Like: 51 °F
Forecast: 46 / 56 °F
Wind: No wind

Location: Hawthorne Municipal Airport

Current Time: Feb 26, 2017 at 4:34:59 am

Latest Report: Feb 26, 2017 at 3:53 am


Visibility: 10 mi

Pressure: 30.00 "Hg

Humidity: 66%

Dew Point: 40 °F

Location of ComptonLocation

Past Weather in Compton — Graph

°F

Compton Temperature Yesterday

Maximum temperature yesterday: 61 °F (at 12:53 pm)
Minimum temperature yesterday: 45 °F (at 3:53 am)
Average temperature yesterday: 53 °F

High & Low Weather Summary for the Past Weeks

 TemperatureHumidityPressure
High75 °F (Feb 15, 12:53 pm)100% (Feb 11, 3:06 am)30.35 "Hg (Feb 11, 3:06 am)
Low43 °F (Feb 24, 3:53 am)21% (Feb 23, 12:53 pm)29.45 "Hg (Feb 17, 3:53 pm)
Average57 °F76%30.03 "Hg
* Reported Feb 11 3:06 am — Feb 26 3:20 am, Compton, Weather by CustomWeather, © 2017

Note: Actual official high and low records may vary slightly from our data, if they occured in-between our weather recording intervals... More about our weather records

Advertising

Compton Weather History for the Previous 24 Hours

Scroll right to see more
 ConditionsComfort  
Time TempWeatherWind HumidityBarometerVisibility
3:20 am
Sun, Feb 26
51 °FOvercast.3 mph80%29.99 "Hg10 mi
2:53 am52 °FMostly cloudy.6 mph72%30.00 "Hg10 mi
2:12 am53 °FMostly cloudy.6 mph69%29.99 "Hg10 mi
1:53 am53 °FMostly cloudy.7 mph69%30.01 "Hg10 mi
12:53 am52 °FMostly cloudy.No wind75%30.01 "Hg10 mi
11:53 pm
Sat, Feb 25
53 °FPassing clouds.6 mph69%30.02 "Hg10 mi
10:53 pm53 °FClear.No wind69%30.02 "Hg10 mi
9:53 pm54 °FClear.No wind64%30.02 "Hg10 mi
8:53 pm54 °FClear.8 mph59%30.02 "Hg10 mi
7:53 pm55 °FPassing clouds.9 mph62%30.03 "Hg10 mi
7:33 pm55 °FPassing clouds.9 mph67%30.03 "Hg10 mi
6:53 pm55 °FPassing clouds.13 mph74%30.01 "Hg10 mi
5:53 pm56 °FPassing clouds.6 mph70%30.01 "Hg10 mi
4:53 pm56 °FPartly sunny.6 mph70%30.01 "Hg10 mi
3:53 pm56 °FPartly sunny.7 mph67%30.02 "Hg10 mi
2:53 pm58 °FSunny.9 mph60%30.04 "Hg10 mi
1:53 pm59 °FSunny.10 mph56%30.06 "Hg10 mi
12:53 pm61 °FSunny.13 mph50%30.08 "Hg10 mi
11:53 am60 °FSunny.No wind42%30.09 "Hg10 mi
10:53 am57 °FSunny.No wind44%30.12 "Hg10 mi
9:53 am56 °FSunny.No wind51%30.14 "Hg10 mi
8:53 am53 °FSunny.No wind55%30.15 "Hg10 mi
7:53 am49 °FSunny.No wind61%30.15 "Hg10 mi
6:53 am45 °FSunny.No wind71%30.12 "Hg10 mi
5:53 am45 °FClear.No wind71%30.13 "Hg10 mi
4:53 am45 °FClear.No wind74%30.13 "Hg10 mi
Weather by CustomWeather, © 2017

See weather overviewHow to use our weather pages

LIVE ANNULAR SOLAR ECLIPSE – Watch the eclipse as it happens